Location: Bucaritos
(10.0779°N, 67.0369°W)
Time: 04:17:08
(UTC+00:00)

Cosmos 1726 - Pass Details

Date: 27 June 2022
Orbit: 469 x 486 km, 82.5° (Epoch: 18 August)

Event Time Altitude Azimuth Distance (km) Brightness Sun altitude
Rises 23:34:47 0° 354° (N) 2,521 6.2 -10.2°
Reaches altitude 10° 23:36:53 10° 352° (N) 1,640 5.2 -10.7°
Maximum altitude 23:40:28 78° 266° (W) 488 2.1 -11.5°
Drops below altitude 10° 23:44:01 10° 180° (S) 1,630 4.5 -12.3°
Enters shadow 23:45:48 - 179° (S) 2,381 5.3 -12.7°
